Location: Conflandey
(47.7287°N, 6.0456°E)
Time: 03:42:43
(UTC+00:00)

H-2A R/B - Pass Details

Date: 24 October 2021
Orbit: 733 x 837 km, 98.2° (Epoch: 28 November)

Event Time Altitude Azimuth Distance (km) Brightness Sun altitude
Rises 17:34:35 0° 166° (SSE) 3,345 5.2 -11.3°
Reaches altitude 10° 17:36:54 10° 168° (SSE) 2,426 4.5 -11.7°
Maximum altitude 17:42:19 83° 256° (WSW) 848 2.3 -12.6°
Drops below altitude 10° 17:47:49 10° 345° (NNW) 2,462 4.8 -13.5°
Sets 17:50:12 0° 346° (NNW) 3,399 5.5 -13.9°
